Weather History for Beaufort, SC

Change the Weather History Date:

Tuesday, March 4, 2014

  Actual Average (KNBC) Record (KNBC)
Temperature  
Mean Temperature 38 °F -  
Max Temperature 41 °F 67 °F 84 °F (1955)
Min Temperature 35 °F 47 °F 22 °F (1943)
Degree Days  
Heating Degree Days 27    
Moisture  
Dew Point 33 °F    
Average Humidity 83    
Maximum Humidity 100    
Minimum Humidity 70    
Precipitation  
Precipitation 0.00 in - - ()
Sea Level Pressure  
Sea Level Pressure 30.18 in    
Wind  
Wind Speed 14 mph (North)    
Max Wind Speed 20 mph    
Max Gust Speed 26 mph    
Visibility 8 miles    
Events      
Averages and records for this station are not official NWS values.
T = Trace of Precipitation, MM = Missing Value Source: NWS Daily Summary

Daily Weather History Graph

Daily Weather History Graph

Search for Another Location

Airport:

Trip Planner

Search our weather history database for the weather conditions in past years. The results will help you decide how hot, cold, wet, or windy it might be!

Date:

Astronomy

Mar. 04, 2014 Rise Set
Actual Time 6:46 AM EST 6:22 PM EST
Civil Twilight 6:21 AM EST 6:46 PM EST
Nautical Twilight 5:53 AM EST 7:15 PM EST
Astronomical Twilight 5:25 AM EST 7:43 PM EST
Moon 8:45 AM EST (3/4) 10:12 PM EST (3/4)
Length of Visible Light 12h 25m
Length of Day
11h 35m
Waxing Crescent, 14% of the Moon is Illuminated
Mar 4
Waxing Crescent
Mar 8
First Quarter
Mar 16
Full
Mar 23
Last Quarter
Mar 30
New

Hourly Weather History & Observations

Time (EST) Temp. Windchill Dew Point Humidity Pressure Visibility Wind Dir Wind Speed Gust Speed Precip Events Conditions
12:15 AM 41.0 °F 33.5 °F 39.2 °F 93% 30.12 in 7.0 mi North 13.8 mph - N/A   Overcast
12:35 AM 41.0 °F 32.5 °F 39.2 °F 93% 30.12 in 7.0 mi NNE 17.3 mph 21.9 mph N/A   Overcast
12:55 AM 39.2 °F 30.5 °F 39.2 °F 100% 30.13 in 10.0 mi North 16.1 mph 21.9 mph N/A   Overcast
1:15 AM 39.2 °F 29.6 °F 39.2 °F 100% 30.13 in 10.0 mi NNE 19.6 mph 26.5 mph N/A   Overcast
1:35 AM 39.2 °F 29.8 °F 37.4 °F 93% 30.13 in 7.0 mi NNE 18.4 mph - N/A   Overcast
1:55 AM 39.2 °F 29.6 °F 37.4 °F 93% 30.14 in 7.0 mi NNE 19.6 mph - N/A   Overcast
2:15 AM 39.2 °F 31.6 °F 37.4 °F 93% 30.14 in 7.0 mi North 12.7 mph - N/A   Overcast
2:35 AM 39.2 °F 30.8 °F 37.4 °F 93% 30.14 in 7.0 mi North 15.0 mph - N/A   Overcast
2:55 AM 39.2 °F 30.5 °F 37.4 °F 93% 30.14 in 7.0 mi NNE 16.1 mph 21.9 mph N/A   Overcast
3:15 AM 39.2 °F 31.2 °F 37.4 °F 93% 30.14 in 7.0 mi NNE 13.8 mph - N/A   Overcast
3:35 AM 39.2 °F 31.6 °F 37.4 °F 93% 30.14 in 10.0 mi NNE 12.7 mph - N/A   Overcast
3:55 AM 39.2 °F 32.0 °F 37.4 °F 93% 30.14 in 10.0 mi North 11.5 mph - N/A   Overcast
4:15 AM 37.4 °F 29.8 °F 35.6 °F 93% 30.14 in 10.0 mi North 11.5 mph 20.7 mph N/A   Overcast
4:35 AM 37.4 °F 28.9 °F 35.6 °F 93% 30.14 in 10.0 mi NNE 13.8 mph 18.4 mph N/A   Overcast
5:15 AM 37.4 °F 27.8 °F 35.6 °F 93% 30.16 in 10.0 mi North 17.3 mph - N/A   Overcast
5:35 AM 37.4 °F 28.2 °F 35.6 °F 93% 30.17 in 10.0 mi NNE 16.1 mph - N/A   Overcast
6:15 AM 35.6 °F 26.6 °F 33.8 °F 93% 30.18 in 10.0 mi NNE 13.8 mph - N/A   Overcast
6:35 AM 35.6 °F 25.5 °F 33.8 °F 93% 30.19 in 10.0 mi NNE 17.3 mph - N/A   Overcast
6:55 AM 35.6 °F 25.2 °F 33.8 °F 93% 30.20 in 10.0 mi NNE 18.4 mph - N/A   Overcast
7:15 AM 35.6 °F 26.2 °F 33.8 °F 93% 30.20 in 10.0 mi NNE 15.0 mph - N/A   Overcast
7:35 AM 35.6 °F 25.9 °F 33.8 °F 93% 30.21 in 10.0 mi NE 16.1 mph 19.6 mph N/A   Overcast
7:55 AM 35.6 °F 25.9 °F 33.8 °F 93% 30.20 in 10.0 mi NE 16.1 mph 19.6 mph N/A   Overcast
8:15 AM 35.6 °F 26.6 °F 33.8 °F 93% 30.22 in 10.0 mi NNE 13.8 mph - N/A   Overcast
8:35 AM 35.6 °F 25.9 °F 32.0 °F 87% 30.23 in 7.0 mi NNE 16.1 mph - N/A   Overcast
8:55 AM 35.6 °F 25.5 °F 32.0 °F 87% 30.22 in 7.0 mi NNE 17.3 mph - N/A   Overcast
9:15 AM 35.6 °F 27.1 °F 32.0 °F 87% 30.23 in 7.0 mi North 12.7 mph - N/A   Overcast
9:35 AM 35.6 °F 26.6 °F 32.0 °F 87% 30.23 in 7.0 mi NNE 13.8 mph 19.6 mph N/A   Overcast
9:55 AM 35.6 °F 27.1 °F 32.0 °F 87% 30.23 in 7.0 mi North 12.7 mph - N/A   Overcast
10:15 AM 35.6 °F 27.1 °F 32.0 °F 87% 30.22 in 7.0 mi NNE 12.7 mph - N/A   Overcast
10:35 AM 35.6 °F 28.0 °F 32.0 °F 87% 30.23 in 7.0 mi North 10.4 mph - N/A   Overcast
10:55 AM 35.6 °F 27.5 °F 32.0 °F 87% 30.22 in 7.0 mi North 11.5 mph - N/A   Overcast
11:35 AM 35.6 °F 26.2 °F 32.0 °F 87% 30.22 in 7.0 mi North 15.0 mph - N/A   Overcast
11:55 AM 35.6 °F 26.6 °F 32.0 °F 87% 30.21 in 5.0 mi North 13.8 mph 17.3 mph N/A   Haze
12:35 PM 37.4 °F 29.3 °F 32.0 °F 81% 30.21 in 5.0 mi North 12.7 mph - N/A   Haze
12:55 PM 37.4 °F 29.8 °F 32.0 °F 81% 30.20 in 7.0 mi NNE 11.5 mph - N/A   Overcast
1:15 PM 41.0 °F 33.5 °F 32.0 °F 70% 30.18 in 5.0 mi North 13.8 mph 17.3 mph N/A   Haze
1:35 PM 41.0 °F 33.9 °F 32.0 °F 70% 30.18 in 5.0 mi NNE 12.7 mph - N/A   Haze
1:55 PM 41.0 °F 34.7 °F 32.0 °F 70% 30.17 in 5.0 mi North 10.4 mph - N/A   Haze
2:15 PM 41.0 °F 33.9 °F 32.0 °F 70% 30.16 in 7.0 mi North 12.7 mph - N/A   Overcast
2:35 PM 41.0 °F 33.9 °F 32.0 °F 70% 30.17 in 10.0 mi North 12.7 mph - N/A   Overcast
2:55 PM 41.0 °F 34.3 °F 32.0 °F 70% 30.16 in 7.0 mi North 11.5 mph - N/A   Overcast
3:15 PM 41.0 °F 33.9 °F 32.0 °F 70% 30.16 in 7.0 mi North 12.7 mph 16.1 mph N/A   Overcast
3:35 PM 41.0 °F 33.5 °F 32.0 °F 70% 30.16 in 7.0 mi North 13.8 mph - N/A   Overcast
3:55 PM 41.0 °F 34.7 °F 32.0 °F 70% 30.14 in 7.0 mi North 10.4 mph - N/A   Overcast
4:15 PM 41.0 °F 33.9 °F 32.0 °F 70% 30.16 in 7.0 mi North 12.7 mph 17.3 mph N/A   Overcast
4:55 PM 41.0 °F 35.2 °F 32.0 °F 70% 30.17 in 7.0 mi North 9.2 mph - N/A   Overcast
5:15 PM 41.0 °F 34.3 °F 32.0 °F 70% 30.17 in 7.0 mi NNE 11.5 mph - N/A   Overcast
5:35 PM 39.2 °F 33.6 °F 32.0 °F 75% 30.16 in 7.0 mi NNE 8.1 mph - N/A   Mostly Cloudy
5:55 PM 39.2 °F 34.2 °F 32.0 °F 75% 30.18 in 10.0 mi North 6.9 mph - N/A   Overcast
6:15 PM 39.2 °F 32.5 °F 32.0 °F 75% 30.19 in 10.0 mi North 10.4 mph - N/A   Overcast
6:35 PM 39.2 °F 33.6 °F 32.0 °F 75% 30.19 in 10.0 mi North 8.1 mph - N/A   Overcast
6:55 PM 39.2 °F 33.6 °F 32.0 °F 75% 30.18 in 10.0 mi North 8.1 mph - N/A   Overcast
7:15 PM 37.4 °F 31.4 °F 30.2 °F 75% 30.19 in 10.0 mi North 8.1 mph - N/A   Overcast
7:55 PM 37.4 °F 29.8 °F 30.2 °F 75% 30.20 in 10.0 mi NNW 11.5 mph - N/A   Overcast
8:15 PM 37.4 °F 31.4 °F 30.2 °F 75% 30.19 in 10.0 mi North 8.1 mph - N/A   Overcast
8:35 PM 39.2 °F 33.6 °F 32.0 °F 75% 30.18 in 10.0 mi North 8.1 mph - N/A   Overcast
8:55 PM 39.2 °F 32.0 °F 32.0 °F 75% 30.19 in 10.0 mi North 11.5 mph - N/A   Overcast
9:15 PM 39.2 °F 34.2 °F 32.0 °F 75% 30.20 in 10.0 mi North 6.9 mph - N/A   Overcast
9:35 PM 37.4 °F 31.4 °F 30.2 °F 75% 30.19 in 10.0 mi NNW 8.1 mph - N/A   Overcast
9:55 PM 37.4 °F 30.3 °F 30.2 °F 75% 30.18 in 10.0 mi North 10.4 mph - N/A   Overcast
10:15 PM 37.4 °F 29.8 °F 30.2 °F 75% 30.18 in 10.0 mi North 11.5 mph - N/A   Overcast
10:35 PM 37.4 °F 30.8 °F 30.2 °F 75% 30.18 in 10.0 mi North 9.2 mph - N/A   Overcast
10:55 PM 37.4 °F 32.1 °F 30.2 °F 75% 30.20 in 10.0 mi NNW 6.9 mph - N/A   Overcast
11:15 PM 37.4 °F 29.8 °F 32.0 °F 81% 30.17 in 10.0 mi North 11.5 mph - N/A   Overcast
11:35 PM 39.2 °F 32.5 °F 32.0 °F 75% 30.16 in 10.0 mi North 10.4 mph - N/A   Overcast
11:55 PM 37.4 °F 28.9 °F 32.0 °F 81% 30.12 in 10.0 mi NE 13.8 mph - N/A   Overcast